Lefor, ND

5:40 AM MST on February 14, 2016 (GMT -0700)
Dickinson Municipal

Weather History for KDIK - June, 2012

Change the Weather History Date:

Thursday, June 21, 2012

  Actual Average Record
Temperature  
Mean Temperature 61 °F 64 °F  
Max Temperature 76 °F 77 °F 101 °F (1988)
Min Temperature 46 °F 51 °F 31 °F (1902)
Degree Days  
Heating Degree Days 4 3  
Month to date heating degree days 66 113  
Since 1 June heating degree days 66 113  
Since 1 July heating degree days 7127 8553  
Cooling Degree Days 0 2  
Month to date cooling degree days 24 29  
Year to date cooling degree days 37 39  
Since 1 June cooling degree days 24 29  
Growing Degree Days 10 (Base 50)    
Moisture  
Dew Point 47 °F    
Average Humidity 63    
Maximum Humidity 93    
Minimum Humidity 33    
Precipitation  
Precipitation 0.00 in 0.11 in 3.09 in (1957)
Month to date precipitation 2.35 2.25  
Year to date precipitation 6.12 7.36  
Sea Level Pressure  
Sea Level Pressure 30.07 in    
Wind  
Wind Speed 8 mph (NW)    
Max Wind Speed 16 mph    
Max Gust Speed 22 mph    
Visibility 10 miles    
Events      
T = Trace of Precipitation, MM = Missing Value Source: NWS Daily Summary

Daily Weather History Graph

Daily Weather History Graph

Search for Another Location

Airport or City:

Trip Planner

Search our weather history database for the weather conditions in past years. The results will help you decide how hot, cold, wet, or windy it might be!

Date:

Astronomy

Jun. 21, 2012 Rise Set
Actual Time 4:57 AM MDT 8:49 PM MDT
Civil Twilight 4:17 AM MDT 9:28 PM MDT
Nautical Twilight 3:23 AM MDT 10:22 PM MDT
Astronomical Twilight 2:03 AM MDT 11:43 PM MDT
Moon 7:05 AM MDT (6/21) 10:03 PM MDT (6/21)
Length of Visible Light 17h 11m
Length of Day
15h 52m
Waxing Crescent, 4% of the Moon is Illuminated
Jun 21
Waxing Crescent
Jun 26
First Quarter
Jul 3
Full
Jul 10
Last Quarter
Jul 18
New

Hourly Weather History & Observations

Time (MDT) Temp. Windchill Dew Point Humidity Pressure Visibility Wind Dir Wind Speed Gust Speed Precip Events Conditions
12:56 AM 48.9 °F - 46.9 °F 93% 30.08 in 10.0 mi West 9.2 mph - N/A   Clear
1:56 AM 48.9 °F - 46.9 °F 93% 30.07 in 10.0 mi West 9.2 mph - N/A   Clear
2:56 AM 48.0 °F - 46.0 °F 93% 30.08 in 10.0 mi West 8.1 mph - N/A   Clear
3:56 AM 48.0 °F - 46.0 °F 93% 30.07 in 10.0 mi West 9.2 mph - N/A   Clear
4:56 AM 46.0 °F 41.9 °F 45.0 °F 96% 30.08 in 10.0 mi West 8.1 mph - N/A   Clear
6:56 AM 55.0 °F - 50.0 °F 83% 30.09 in 10.0 mi WNW 8.1 mph - N/A   Clear
7:56 AM 60.1 °F - 51.1 °F 72% 30.10 in 10.0 mi WNW 12.7 mph - N/A   Clear
8:56 AM 64.9 °F - 48.9 °F 56% 30.11 in 10.0 mi WNW 13.8 mph - N/A   Clear
9:56 AM 66.9 °F - 46.9 °F 49% 30.11 in 10.0 mi WNW 12.7 mph 20.7 mph N/A   Clear
10:56 AM 71.1 °F - 46.9 °F 42% 30.09 in 10.0 mi West 11.5 mph 17.3 mph N/A   Partly Cloudy
11:56 AM 71.1 °F - 46.9 °F 42% 30.09 in 10.0 mi NNW 10.4 mph - N/A   Scattered Clouds
12:56 PM 73.9 °F - 46.0 °F 37% 30.08 in 10.0 mi NNW 10.4 mph 18.4 mph N/A   Scattered Clouds
1:56 PM 72.0 °F - 44.1 °F 37% 30.06 in 10.0 mi NW 8.1 mph - N/A   Partly Cloudy
2:56 PM 73.9 °F - 44.1 °F 34% 30.06 in 10.0 mi Variable 4.6 mph - N/A   Clear
3:56 PM 75.9 °F - 45.0 °F 33% 30.04 in 10.0 mi NNW 6.9 mph - N/A   Clear
4:56 PM 73.9 °F - 45.0 °F 35% 30.04 in 10.0 mi North 6.9 mph - N/A   Clear
5:56 PM 73.9 °F - 45.0 °F 35% 30.02 in 10.0 mi North 5.8 mph - N/A   Clear
6:56 PM 73.0 °F - 46.0 °F 38% 30.02 in 10.0 mi NNE 4.6 mph - N/A   Clear
7:56 PM 66.0 °F - 50.0 °F 56% 30.02 in 10.0 mi NE 5.8 mph - N/A   Clear
8:56 PM 59.0 °F - 50.0 °F 72% 30.03 in 10.0 mi ENE 5.8 mph - N/A   Clear
10:56 PM 57.9 °F - 48.0 °F 70% 30.04 in 10.0 mi ESE 6.9 mph - N/A   Clear
11:56 PM 54.0 °F - 46.9 °F 77% 30.06 in 10.0 mi SE 5.8 mph - N/A   Clear